Regional Weather Roundup
Issued by NWS Mt. Holly, NJ

Home | Current Version | Previous Version | Text Only | Print | Product List | Glossary On
Versions: 1 2 3 4 5 6 7 8 9 10 11 12 13 14 15 16 17 18 19 20 21 22 23 24 25 26 27 28 29 30 31 32 33 34 35 36 37 38 39 40 41 42 43 44 45 46 47 48 49 50
000
ASUS41 KPHI 231511
RWRPHI

REGIONAL WEATHER ROUNDUP
NATIONAL WEATHER SERVICE MOUNT HOLLY NJ
1100 AM EDT SAT MAY 23 2015

NOTE:  "FAIR" INDICATES FEW OR NO CLOUDS BELOW 12,000 FEET WITH NO
SIGNIFICANT WEATHER AND/OR OBSTRUCTIONS TO VISIBILITY.

 * = STATION DOES NOT REPORT PRECIPITATION (E.G. RAIN, SNOW, ETC.)
        OR FOG.

NJZ015>026-231600-
SOUTHERN NEW JERSEY

CITY           SKY/WX    TMP DP  RH WIND       PRES   REMARKS
POMONA         SUNNY     60  27  28 N14G20    30.44R
RIO GRANDE*    SUNNY     59  30  33 NW8       30.46S
MILLVILLE      SUNNY     59  28  30 NW10G20   30.45S
WRIGHTSTOWN    SUNNY     58  27  30 N8        30.42R
MOUNT HOLLY    SUNNY     57  26  30 W7        30.45R
TRENTON        SUNNY     57  24  28 N8G17     30.44S

$$
NJZ001>014-231600-
NORTHERN NEW JERSEY

CITY           SKY/WX    TMP DP  RH WIND       PRES   REMARKS
SUSSEX         SUNNY     54  25  32 N9        30.44S
ANDOVER*         N/A     55  27  34 VRB3      30.43S
MORRISTOWN     MOSUNNY   57  25  28 NW7G17    30.44S
NEWARK         MOSUNNY   58  23  26 NW12      30.43S
TETERBORO      SUNNY     56  23  27 VRB7G22   30.42R
CALDWELL       SUNNY     55  24  30 NW6       30.43S
SOMERVILLE     SUNNY     56  23  27 NW6G16    30.42S
ALLAIRE*       SUNNY     57  28  33 N8        30.43S
TOMS RIVER*    SUNNY    N/A N/A N/A N10G20    30.43S

$$
PAZ043-044-047-054-055-060>062-066>071-231600-
EASTERN PENNSYLVANIA

CITY           SKY/WX    TMP DP  RH WIND       PRES   REMARKS
PHILADELPHIA   MOSUNNY   58  22  24 NW7       30.46S
NORTH PHILA    SUNNY     60  22  23 N12       30.46S
BLUE BELL      SUNNY     57  25  28 CALM      30.44F
DOYLESTOWN     SUNNY     57  24  28 VRB6      30.44S
QUAKERTOWN*    SUNNY     55  25  30 N9        30.45F
POTTSTOWN      SUNNY     56  27  32 MISG      30.46F
LANCASTER      SUNNY     57  30  35 NW7       30.46R
COATESVILLE    SUNNY     55  28  35 NE3       30.45S
READING        SUNNY     57  26  30 VRB5      30.44F
ALLENTOWN      SUNNY     56  27  32 NE7       30.45S
MOUNT POCONO   SUNNY     49  22  34 N6        30.41R
HAZLETON       SUNNY     50  27  40 NW6       30.45S
WILKES BARRE   SUNNY     54  23  30 N7        30.44S

$$
DEZALL-MDZ008-012-015-019-020-231600-
DELAWARE AND EASTERN MARYLAND

CITY           SKY/WX    TMP DP  RH WIND       PRES   REMARKS
WILMINGTON     SUNNY     60  30  32 NW6       30.46S
DOVER          SUNNY     61  37  42 NW10      30.43R
GEORGETOWN     SUNNY     63  36  36 VRB7      30.46R
EASTON         MOSUNNY   63  32  31 N3        30.50R
PATUXENT       MOSUNNY   63  32  31 N9        30.47S
OCEAN CITY     SUNNY     61  41  47 E9        30.46R
WALLOPS ISLAND SUNNY     63  42  46 E9        30.47R
SALISBURY      SUNNY     63  32  31 N7        30.46R

$$
PAZ001-021-NYZ056-072-MDZ011-DCZ001-231600-
OTHER NEARBY LOCATIONS

CITY           SKY/WX    TMP DP  RH WIND       PRES   REMARKS
HARRISBURG     MOSUNNY   57  30  35 W10       30.46R
STATE COLLEGE  SUNNY     54  28  37 CALM      30.45F
WILLIAMSPORT   SUNNY     54  26  34 SW7       30.45S
BINGHAMTON     SUNNY     48  26  42 W7        30.41S
NEW YORK CITY  SUNNY     56  24  29 NW3       30.45R
BALTIMORE      MOSUNNY   62  26  25 CALM      30.46S
WASHINGTON DC  MOSUNNY   66  28  24 N5        30.48S

$$


USA.gov is the U.S. government's official web portal to all federal, state and local government web resources and services.